When you browse on this site, cookies collect data to enhance your experience and personalize the content and advertising you see.
Visit our Privacy Policy to learn more. By continuing to use the site, you agree to this use of cookies and data.
  • In Romania
  • List of Countries
  • For 7 days
  • Water Temperature
  • Satellite Maps
  • Weather Map
  • Weather Widgets
  • user-avatar
    Login

    Hourly Weather Proshkovo

    Today, 19 July, Friday

    Time Temperature Precipitation Wind Pressure Humidity
    00:00 +15°C° 0.1 mm 2 mps 740 mmHg 99%
    01:00 +15°C° 0.1 mm 1 mps 741 mmHg 99%
    02:00 +15°C° 0 mm 1 mps 741 mmHg 99%
    03:00 +15°C° 0.2 mm 1 mps 741 mmHg 99%
    04:00 +15°C° 0.2 mm 1 mps 742 mmHg 99%
    05:00 +15°C° 0.2 mm 1 mps 742 mmHg 99%
    06:00 +15°C° 0.3 mm 1 mps 742 mmHg 98%
    07:00 +16°C° 0.3 mm 1 mps 742 mmHg 98%
    08:00 +16°C° 0.3 mm 2 mps 742 mmHg 98%
    09:00 +17°C° 1.1 mm 2 mps 742 mmHg 96%
    10:00 +18°C° 1.1 mm 2 mps 742 mmHg 94%
    11:00 +18°C° 1.1 mm 3 mps 742 mmHg 92%
    12:00 +18°C° 1.7 mm 3 mps 742 mmHg 92%
    13:00 +19°C° 1.7 mm 4 mps 742 mmHg 93%
    14:00 +19°C° 1.7 mm 4 mps 742 mmHg 93%
    15:00 +18°C° 0.8 mm 4 mps 743 mmHg 93%
    16:00 +18°C° 0.8 mm 4 mps 743 mmHg 93%
    17:00 +18°C° 0.8 mm 4 mps 743 mmHg 92%
    18:00 +17°C° 0.6 mm 4 mps 743 mmHg 94%
    19:00 +17°C° 0.6 mm 4 mps 743 mmHg 95%
    20:00 +16°C° 0.6 mm 3 mps 743 mmHg 96%
    21:00 +16°C° 0.3 mm 3 mps 744 mmHg 97%
    22:00 +16°C° 0.3 mm 3 mps 744 mmHg 97%
    23:00 +16°C° 0.3 mm 3 mps 744 mmHg 98%

    Tomorrow, 20 July, Saturday

    Time Temperature Precipitation Wind Pressure Humidity
    00:00 +16°C° 0.1 mm 3 mps 745 mmHg 98%
    01:00 +16°C° 0.1 mm 3 mps 745 mmHg 98%
    02:00 +16°C° 0.1 mm 3 mps 745 mmHg 98%
    03:00 +14°C° 0 mm 3 mps 745 mmHg 97%
    04:00 +14°C° 0 mm 3 mps 746 mmHg 97%
    05:00 +14°C° 0 mm 3 mps 746 mmHg 97%
    06:00 +14°C° 0 mm 3 mps 746 mmHg 96%
    07:00 +16°C° 0 mm 3 mps 746 mmHg 95%
    08:00 +16°C° 0 mm 3 mps 747 mmHg 94%
    09:00 +16°C° 0.1 mm 3 mps 747 mmHg 93%
    10:00 +16°C° 0.1 mm 3 mps 748 mmHg 92%
    11:00 +17°C° 0.1 mm 3 mps 748 mmHg 91%
    12:00 +18°C° 0.1 mm 3 mps 748 mmHg 85%
    13:00 +19°C° 0.1 mm 3 mps 748 mmHg 79%
    14:00 +21°C° 0.1 mm 3 mps 748 mmHg 73%
    15:00 +20°C° 0.8 mm 3 mps 749 mmHg 79%
    16:00 +20°C° 0.8 mm 3 mps 749 mmHg 84%
    17:00 +20°C° 0.8 mm 3 mps 749 mmHg 90%
    18:00 +19°C° 0.3 mm 3 mps 749 mmHg 92%
    19:00 +18°C° 0.3 mm 2 mps 749 mmHg 94%
    20:00 +17°C° 0.3 mm 2 mps 750 mmHg 95%
    21:00 +16°C° 0 mm 2 mps 750 mmHg 96%
    22:00 +15°C° 0 mm 1 mps 750 mmHg 96%
    23:00 +15°C° 0 mm 1 mps 750 mmHg 97%

    Day after tomorrow, 21 July, Sunday

    Time Temperature Precipitation Wind Pressure Humidity
    00:00 +14°C° 0 mm 1 mps 751 mmHg 97%
    01:00 +14°C° 0 mm 1 mps 751 mmHg 97%
    02:00 +13°C° 0 mm 1 mps 751 mmHg 98%
    03:00 +13°C° 0 mm 1 mps 751 mmHg 98%
    04:00 +13°C° 0 mm 1 mps 751 mmHg 98%
    05:00 +13°C° 0 mm 1 mps 752 mmHg 98%
    06:00 +15°C° 0 mm 1 mps 752 mmHg 93%
    07:00 +16°C° 0 mm 1 mps 752 mmHg 88%
    08:00 +19°C° 0 mm 1 mps 752 mmHg 84%
    09:00 +21°C° 0.1 mm 1 mps 752 mmHg 75%
    10:00 +21°C° 0.1 mm 2 mps 752 mmHg 65%
    11:00 +24°C° 0.1 mm 2 mps 752 mmHg 56%
    12:00 +24°C° 0 mm 2 mps 752 mmHg 54%
    13:00 +25°C° 0 mm 2 mps 752 mmHg 51%
    14:00 +25°C° 0 mm 2 mps 751 mmHg 48%
    15:00 +25°C° 0 mm 2 mps 751 mmHg 51%
    16:00 +25°C° 0 mm 2 mps 751 mmHg 53%
    17:00 +25°C° 0 mm 2 mps 751 mmHg 56%
    18:00 +23°C° 0 mm 1 mps 751 mmHg 64%
    19:00 +21°C° 0 mm 1 mps 751 mmHg 72%
    20:00 +19°C° 0 mm 1 mps 751 mmHg 80%
    21:00 +16°C° 0 mm 0 mps 751 mmHg 82%
    22:00 +15°C° 0 mm 0 mps 751 mmHg 84%
    23:00 +14°C° 0 mm 0 mps 751 mmHg 86%

    22 July, Monday

    Time Temperature Precipitation Wind Pressure Humidity
    00:00 +13°C° 0 mm 0 mps 751 mmHg 87%
    01:00 +13°C° 0 mm 0 mps 751 mmHg 88%
    02:00 +12°C° 0 mm 0 mps 751 mmHg 89%
    03:00 +13°C° 0 mm 0 mps 751 mmHg 87%
    04:00 +13°C° 0 mm 0 mps 751 mmHg 86%
    05:00 +14°C° 0 mm 0 mps 751 mmHg 85%
    06:00 +16°C° 0 mm 0 mps 751 mmHg 78%
    07:00 +18°C° 0 mm 0 mps 751 mmHg 71%
    08:00 +20°C° 0 mm 0 mps 750 mmHg 64%
    09:00 +22°C° 0 mm 0 mps 750 mmHg 59%
    10:00 +25°C° 0 mm 1 mps 750 mmHg 54%
    11:00 +26°C° 0 mm 1 mps 750 mmHg 49%
    12:00 +26°C° 0 mm 1 mps 750 mmHg 48%
    13:00 +27°C° 0 mm 1 mps 750 mmHg 46%
    14:00 +27°C° 0 mm 1 mps 749 mmHg 45%
    15:00 +26°C° 0 mm 1 mps 749 mmHg 49%
    16:00 +26°C° 0 mm 1 mps 749 mmHg 52%
    17:00 +25°C° 0 mm 2 mps 749 mmHg 56%
    18:00 +23°C° 0 mm 2 mps 749 mmHg 64%
    19:00 +20°C° 0 mm 2 mps 749 mmHg 71%
    20:00 +19°C° 0 mm 2 mps 749 mmHg 79%
    21:00 +18°C° 0 mm 2 mps 749 mmHg 80%
    22:00 +17°C° 0 mm 2 mps 749 mmHg 80%
    23:00 +16°C° 0 mm 2 mps 749 mmHg 81%

    23 July, Tuesday

    Time Temperature Precipitation Wind Pressure Humidity
    00:00 +16°C° 0 mm 1 mps 749 mmHg 82%
    01:00 +15°C° 0 mm 1 mps 749 mmHg 82%
    02:00 +15°C° 0 mm 1 mps 749 mmHg 83%
    03:00 +15°C° 0 mm 1 mps 749 mmHg 83%
    04:00 +15°C° 0 mm 1 mps 749 mmHg 83%
    05:00 +15°C° 0 mm 1 mps 749 mmHg 83%
    06:00 +18°C° 0 mm 1 mps 749 mmHg 77%
    07:00 +20°C° 0 mm 1 mps 749 mmHg 72%
    08:00 +21°C° 0 mm 1 mps 749 mmHg 66%
    09:00 +22°C° 0 mm 1 mps 749 mmHg 62%
    10:00 +23°C° 0 mm 1 mps 749 mmHg 57%
    11:00 +24°C° 0 mm 2 mps 749 mmHg 53%
    12:00 +25°C° 0 mm 2 mps 749 mmHg 52%
    13:00 +25°C° 0 mm 2 mps 749 mmHg 51%
    14:00 +25°C° 0 mm 3 mps 749 mmHg 50%
    15:00 +25°C° 0 mm 2 mps 749 mmHg 53%
    16:00 +24°C° 0 mm 2 mps 749 mmHg 57%
    17:00 +24°C° 0 mm 2 mps 749 mmHg 60%
    18:00 +21°C° 0 mm 2 mps 750 mmHg 63%
    19:00 +20°C° 0 mm 2 mps 750 mmHg 67%
    20:00 +18°C° 0 mm 2 mps 750 mmHg 70%
    21:00 +18°C° 0 mm 2 mps 750 mmHg 70%
    22:00 +18°C° 0 mm 1 mps 750 mmHg 69%
    23:00 +18°C° 0 mm 1 mps 751 mmHg 69%

    24 July, Wednesday

    Time Temperature Precipitation Wind Pressure Humidity
    00:00 +16°C° 0 mm 1 mps 751 mmHg 72%
    01:00 +15°C° 0 mm 1 mps 751 mmHg 76%
    02:00 +14°C° 0 mm 1 mps 751 mmHg 80%
    03:00 +14°C° 0 mm 1 mps 751 mmHg 81%
    04:00 +13°C° 0 mm 1 mps 751 mmHg 83%
    05:00 +13°C° 0 mm 2 mps 751 mmHg 84%
    06:00 +14°C° 0 mm 2 mps 751 mmHg 78%
    07:00 +16°C° 0 mm 2 mps 751 mmHg 71%
    08:00 +18°C° 0 mm 2 mps 751 mmHg 64%
    09:00 +20°C° 0 mm 2 mps 752 mmHg 59%
    10:00 +21°C° 0 mm 3 mps 752 mmHg 53%
    11:00 +24°C° 0 mm 3 mps 752 mmHg 47%
    12:00 +24°C° 0 mm 3 mps 752 mmHg 47%
    13:00 +25°C° 0 mm 4 mps 751 mmHg 46%
    14:00 +25°C° 0 mm 4 mps 751 mmHg 45%
    15:00 +25°C° 0 mm 3 mps 751 mmHg 47%
    16:00 +25°C° 0 mm 3 mps 751 mmHg 49%
    17:00 +25°C° 0 mm 3 mps 751 mmHg 51%
    18:00 +23°C° 0 mm 2 mps 751 mmHg 61%
    19:00 +20°C° 0 mm 2 mps 751 mmHg 70%
    20:00 +19°C° 0 mm 1 mps 751 mmHg 80%
    21:00 +19°C° 0 mm 1 mps 751 mmHg 83%
    22:00 +18°C° 0 mm 1 mps 751 mmHg 86%
    23:00 +16°C° 0 mm 1 mps 752 mmHg 89%
    Show more